Location: Greene
(44.1583°N, 70.1456°W)
Time: 07:21:13
(UTC-04:00)

Tiangong 2 - Visible Passes

Search period start: 19 July 2018 00:00
Search period end: 29 July 2018 00:00
Orbit: 386 x 394 km, 42.8° (Epoch: 19 July)

Date Brightness Start Highest point End Pass type
(mag) Time Alt. Az. Time Alt. Az. Time Alt. Az.
19 Jul 1.1 21:00:10 10° W 21:03:20 65° S 21:06:30 10° ESE visible
19 Jul 2.8 22:37:11 10° W 22:39:00 23° SW 22:39:00 23° SW visible
20 Jul 1.8 21:39:22 10° W 21:42:23 39° SSW 21:43:42 25° SE visible
21 Jul 3.1 22:18:59 10° WSW 22:20:44 17° SW 22:20:44 17° SW visible
22 Jul 2.5 21:20:57 10° W 21:23:40 26° SSW 21:25:28 16° SSE visible
23 Jul 3.7 22:02:00 10° SW 22:02:21 10° SW 22:02:33 10° SSW visible
24 Jul 3.3 21:02:47 10° WSW 21:04:52 16° SSW 21:06:57 10° SSE visible
